Location: *
(49.0044°N, 9.5056°E)
Time: 09:16:12
(UTC+00:00)

Cosmos 1674 - Pass Details

Date: 22 September 2019
Orbit: 495 x 519 km, 82.5° (Epoch: 19 October)

Event Time Altitude Azimuth Distance (km) Brightness Sun altitude
Rises 18:41:10 0° 356° (N) 2,598 6.5 -13.8°
Reaches altitude 10° 18:43:24 10° 4° (N) 1,707 5.5 -14.2°
Maximum altitude 18:46:56 40° 75° (ENE) 748 3.1 -14.7°
Enters shadow 18:48:18 28° 123° (ESE) 954 3.5 -14.9°
